GFSSGP_250_rhum_015.txt.gz
RH
41 38 46 35 47 42 37 30 26 33 38 34 27 31 32 66 62 93 94 99 90 48 50 75 88 100 100 87 76 80 80 83 67 53 38 24 28 23 23 24 34 25 57 43 33 27 29 38 44
58 57 35 50 44 55 59 34 34 34 30 30 36 42 53 81 72 68 73 60 60 66 100 100 99 92 93 93 79 61 62 43 34 22 15 16 15 16 20 19 25 36 35 41 53 69 60 66 70
64 74 41 37 47 51 34 24 32 38 64 64 66 95 71 63 72 100 100 100 100 100 100 100 87 74 91 79 44 34 20 14 12 12 11 16 20 27 34 35 38 44 65 80 81 70 84 96 98
68 70 73 68 64 52 91 100 100 100 100 87 77 67 65 53 57 83 93 88 86 86 86 70 73 82 63 26 16 10 10 12 14 19 24 30 30 28 32 28 32 32 36 39 39 37 35 35 52
100 99 100 96 88 84 86 79 81 71 63 76 86 100 100 99 90 100 100 86 76 77 82 87 66 44 17 9 8 10 13 16 20 28 26 24 23 26 32 35 38 42 46 44 40 41 42 40 36
94 74 77 89 93 87 84 64 62 66 77 99 100 100 98 100 100 100 100 98 82 85 62 29 13 10 9 10 12 14 16 19 21 21 22 22 26 29 30 33 43 50 53 56 54 57 45 39 35
97 88 62 65 84 84 63 73 80 98 83 91 94 89 96 92 98 94 95 84 78 48 11 9 10 11 12 16 15 15 18 21 25 28 29 31 31 32 36 40 45 45 46 57 65 60 58 54 38
89 77 75 62 52 62 74 98 100 100 89 100 85 88 77 80 90 93 61 39 20 9 9 12 15 19 21 23 24 26 27 32 36 39 37 38 39 44 57 55 58 50 40 35 39 58 63 64 72
89 83 86 92 92 92 100 96 92 81 74 87 79 75 77 63 52 36 17 11 13 14 18 21 22 22 22 24 26 26 28 30 34 35 41 44 41 38 44 45 43 50 71 59 46 44 45 54 60
99 71 100 100 100 91 82 86 75 62 68 90 86 66 46 38 20 10 10 14 20 23 22 21 21 23 25 26 28 32 32 33 34 37 38 37 40 44 42 38 34 35 39 52 53 66 64 54 40
78 83 88 92 87 78 80 69 67 81 78 71 47 36 22 10 10 14 17 22 20 19 22 23 27 25 25 26 30 31 33 37 41 44 46 46 46 46 46 44 44 46 45 39 39 51 55 61 77
90 80 69 57 64 80 86 84 66 59 47 23 13 10 10 14 18 19 20 24 23 24 23 23 26 41 45 45 47 41 39 42 45 51 48 50 52 51 55 55 50 48 49 51 50 45 44 57 58
69 60 52 49 55 54 53 55 41 24 11 11 11 14 18 19 24 25 27 26 23 30 47 63 70 64 61 55 56 59 59 59 55 52 52 47 41 42 47 52 54 57 57 52 52 52 52 46 45
53 54 41 35 27 32 29 18 17 12 11 15 18 19 23 24 22 23 23 22 25 57 87 84 78 68 61 56 52 48 47 48 45 39 33 34 37 40 42 42 37 37 39 42 40 38 42 46 44
26 25 28 24 20 16 11 11 14 15 20 22 19 20 20 20 24 24 25 34 38 64 50 42 47 47 51 51 44 36 30 28 28 31 30 33 42 42 44 44 40 37 38 38 40 43 41 40 42
15 15 13 10 12 12 13 16 21 24 24 22 23 27 31 32 52 51 58 70 63 53 43 37 30 26 27 29 27 28 28 28 35 40 43 52 52 58 61 60 60 56 48 44 39 33 32 34 35
10 10 11 11 15 17 18 24 26 28 33 28 29 42 54 42 34 40 52 43 37 33 28 27 24 24 25 25 27 31 39 54 57 58 64 71 79 85 85 78 71 63 54 50 48 47 43 43 43
12 14 14 17 24 23 28 32 34 36 37 35 31 31 33 29 22 25 24 28 31 31 28 23 23 24 26 27 29 35 49 45 39 38 41 48 46 46 43 43 45 44 47 47 48 53 55 53 48
17 19 22 26 27 28 29 33 38 32 21 17 16 16 18 22 26 24 22 22 24 27 24 23 23 25 28 30 44 53 47 46 47 54 59 60 56 63 72 80 88 93 88 78 66 69 65 58 59
16 18 21 22 23 23 28 24 24 21 20 19 18 18 26 35 34 28 26 23 27 25 21 22 25 27 35 57 57 57 56 58 68 84 97 92 85 83 80 82 79 75 65 60 54 48 48 44 43
17 18 19 18 17 14 18 19 20 22 22 24 26 31 36 35 31 29 24 26 29 27 32 38 50 64 73 67 68 76 87 89 88 88 84 91 80 64 59 57 60 60 53 49 46 47 47 41 40
18 16 15 16 17 17 18 20 23 30 32 31 34 36 38 36 30 27 27 31 30 32 44 76 79 78 81 95 94 84 74 63 60 57 60 61 58 56 61 56 49 48 47 57 50 42 42 42 44
18 17 18 17 17 19 19 24 30 27 32 33 28 27 30 30 29 26 26 28 34 57 92 96 89 80 80 79 70 59 56 54 52 51 48 53 61 58 45 43 49 61 65 63 60 53 55 52 48
17 19 20 21 21 25 25 25 25 25 25 23 22 23 23 24 29 36 45 63 82 91 79 68 62 62 62 56 58 58 53 52 53 56 58 47 42 42 51 65 65 72 72 64 58 54 50 42 38
18 18 20 24 26 24 22 21 20 20 19 20 23 25 29 47 62 75 84 83 75 72 65 53 52 52 52 49 45 47 56 60 61 59 46 46 53 60 67 68 61 69 72 61 54 48 38 32 29
19 18 16 19 23 21 21 19 20 19 20 24 31 38 56 66 69 64 66 66 61 48 39 37 39 46 50 49 46 43 44 48 50 56 62 66 68 67 62 59 63 54 54 43 35 30 25 24 23
19 17 17 19 20 21 24 23 21 18 24 37 51 64 70 61 51 42 56 62 44 42 45 46 43 43 40 48 52 61 69 73 78 85 92 93 77 69 72 61 49 46 37 23 20 18 18 17 18
19 16 15 16 17 17 19 20 17 24 40 61 67 68 57 48 50 55 52 47 53 59 51 43 43 50 60 60 76 80 79 83 93 100 99 90 71 66 64 54 36 25 18 16 15 14 14 14 14
18 16 15 15 16 17 18 29 30 46 62 70 60 54 53 56 55 63 62 59 60 53 42 45 59 73 82 96 95 100 94 97 100 93 83 70 62 52 40 30 24 17 14 12 11 10 10 10 10
22 21 20 21 25 35 45 48 60 61 66 61 69 64 64 58 51 55 51 51 47 47 52 70 72 87 99 100 100 100 100 100 90 81 62 53 46 35 24 16 14 11 10 8 8 7 7 8 8

GFSSGP_250_rhum_018.txt.gz
RH
75 88 99 99 89 69 54 46 40 34 30 30 29 35 34 27 22 23 24 31 45 54 60 78 73 70 74 86 92 96 96 94 86 75 53 28 30 19 14 17 16 46 37 40 31 34 40 50 34
64 72 75 73 72 72 63 47 40 36 34 29 24 25 35 28 28 41 53 58 56 77 97 100 96 100 100 100 100 100 100 85 51 12 11 11 11 24 35 21 33 28 32 50 52 38 45 62 62
51 73 84 69 64 66 59 51 57 46 39 32 29 30 36 41 100 100 76 63 56 60 78 100 100 100 100 100 100 100 63 35 10 9 8 9 13 18 20 30 29 45 54 46 32 39 49 48 49
48 53 61 58 51 54 45 46 40 50 43 41 41 42 52 70 58 57 59 77 87 94 98 100 100 98 92 64 46 36 21 9 9 12 13 15 18 19 20 21 23 25 24 25 31 34 36 41 43
54 53 53 74 84 67 76 59 60 59 68 88 91 80 70 68 73 70 99 100 100 100 94 94 87 62 45 22 14 11 11 14 14 15 17 17 19 19 19 19 20 20 22 28 34 43 47 51 44
73 58 47 54 68 100 100 100 100 81 71 61 48 51 69 70 100 100 99 86 89 92 96 84 57 34 13 11 12 14 15 16 18 20 25 26 30 29 30 32 36 38 37 33 32 38 54 57 58
98 74 76 63 57 55 62 72 76 60 53 56 65 79 79 100 95 86 79 86 88 84 58 26 12 10 12 14 17 18 22 24 23 25 26 28 30 32 30 30 31 40 47 49 44 40 44 50 57
100 100 100 100 99 91 92 62 48 57 59 59 75 100 99 100 89 86 85 90 72 30 20 12 11 15 17 19 20 21 22 24 30 31 30 27 31 32 32 33 36 31 31 33 40 44 49 48 48
100 100 98 100 100 100 100 100 91 100 100 97 100 93 90 86 89 88 77 58 27 13 14 14 15 18 20 22 25 26 29 31 32 34 36 36 34 33 33 43 44 39 32 28 26 29 42 47 45
98 100 100 99 100 98 57 95 98 94 100 98 94 86 74 87 78 64 31 16 13 15 16 18 20 24 26 31 39 40 35 34 36 35 35 37 40 45 44 42 42 44 46 40 31 28 30 35 46
100 100 98 95 83 76 82 87 89 100 97 89 79 69 64 49 27 18 12 13 15 15 18 21 26 34 39 45 48 45 42 41 40 38 37 38 39 35 36 42 46 45 42 41 42 41 33 32 36
82 88 92 91 87 97 87 95 91 76 70 68 49 40 27 12 12 13 15 18 18 19 22 30 40 40 40 38 39 39 36 33 29 27 27 27 29 32 38 46 47 51 50 42 39 40 41 35 34
81 77 77 88 81 98 84 82 70 58 54 39 17 11 13 13 13 14 18 22 23 23 24 34 51 51 42 34 34 31 26 26 27 27 25 30 33 36 42 48 51 57 65 66 57 47 42 40 39
57 56 55 55 68 67 66 53 40 27 15 11 14 15 15 16 17 20 22 24 23 25 21 23 37 40 34 30 28 28 28 28 29 32 39 44 48 52 45 38 33 33 38 40 41 46 52 57 50
21 23 25 36 35 32 28 21 16 15 13 16 18 20 20 21 20 25 29 34 29 26 43 47 46 38 30 26 23 24 25 26 26 28 35 46 53 51 47 46 44 43 43 42 38 36 35 35 41
17 16 16 17 17 13 11 11 16 19 20 20 21 23 22 21 27 37 31 26 25 25 27 22 26 28 27 20 20 24 25 28 30 45 60 78 69 63 66 67 64 63 64 61 58 60 64 66 59
13 12 11 10 10 11 14 16 21 24 23 22 26 31 32 28 28 31 26 21 19 16 16 17 20 23 21 22 26 26 30 38 54 69 76 67 64 67 73 70 65 58 50 50 53 50 49 53 58
11 11 11 12 12 14 19 21 23 27 37 34 32 24 18 17 16 16 17 18 17 18 21 27 28 28 30 33 37 45 55 66 79 82 80 69 64 60 52 48 45 46 49 64 64 70 71 72 68
12 12 13 14 17 21 26 27 32 34 32 34 31 27 19 18 24 30 24 25 26 24 25 27 30 29 32 42 56 65 71 77 72 65 64 63 60 56 56 64 68 63 64 72 70 71 78 68 58
13 14 17 20 21 25 27 26 29 30 24 21 21 22 24 26 28 30 31 30 30 29 28 29 31 39 53 64 70 78 76 66 53 50 58 62 61 60 66 67 65 64 61 62 65 62 65 67 60
15 15 16 16 17 18 21 19 17 18 19 21 24 25 28 30 29 28 28 28 27 27 33 49 63 70 72 77 80 68 53 49 52 60 56 51 52 53 56 58 59 64 71 77 79 91 97 86 74
16 16 16 16 15 15 15 16 18 19 21 24 28 32 26 24 23 23 22 31 42 52 61 67 71 79 79 61 46 43 46 53 56 55 53 56 55 55 62 72 74 74 72 86 91 94 94 92 90
19 18 19 18 18 18 17 18 21 23 23 27 25 23 24 23 25 32 43 56 66 78 86 92 88 72 49 51 51 50 49 45 46 54 52 56 54 60 68 78 68 67 74 83 83 82 79 65 60
22 21 18 19 19 19 20 23 30 21 22 22 22 25 23 25 36 49 71 80 81 85 99 92 71 52 47 51 55 58 48 46 46 50 50 55 65 75 97 98 87 98 86 80 76 73 70 64 58
25 21 18 18 18 19 20 23 22 20 21 21 26 23 25 37 58 73 81 76 80 92 82 64 56 54 56 58 60 50 49 53 54 63 63 72 89 100 97 99 100 89 87 77 64 62 52 46 42
30 36 20 17 17 17 20 24 22 21 23 24 20 22 34 58 68 59 56 65 69 59 54 58 55 53 53 56 56 60 60 64 72 79 92 100 100 100 96 82 82 74 62 56 36 31 25 22 22
26 28 27 20 18 18 19 20 18 17 17 19 25 34 53 71 69 59 57 53 53 57 52 54 57 59 57 67 65 75 82 78 81 96 97 100 100 91 94 81 61 52 36 26 18 16 15 15 14
22 23 23 19 16 16 17 17 16 18 24 35 44 60 62 58 52 51 54 55 56 55 57 56 53 54 59 70 79 85 90 87 98 100 100 100 95 100 83 65 49 29 18 15 12 12 11 10 9
26 24 20 18 18 18 20 25 28 44 53 56 58 56 54 44 45 61 65 66 64 61 56 59 66 74 79 84 93 97 99 100 100 100 94 97 96 81 60 42 16 15 14 12 10 8 7 6 6
34 33 35 36 40 40 46 75 78 55 78 69 61 62 59 72 84 69 69 68 57 52 60 66 77 87 97 96 96 100 100 100 100 95 100 85 63 49 37 14 14 13 10 8 6 6 6 6 7

GFSSGP_250_rhum_021.txt.gz
RH
94 77 79 76 92 99 88 80 86 96 97 95 92 80 63 52 40 34 33 32 27 22 31 32 35 52 60 72 80 100 99 97 100 83 73 59 38 16 28 23 12 14 19 36 52 47 30 44 36
83 90 86 81 83 90 74 88 80 87 89 86 75 59 55 54 52 24 23 25 26 35 47 58 69 81 81 100 100 100 91 96 73 56 23 16 12 11 11 11 12 14 20 18 20 31 34 39 33
88 89 89 84 82 74 69 67 62 71 80 72 64 56 49 45 41 30 43 43 44 68 83 79 74 98 100 98 99 96 89 77 29 17 10 10 11 11 13 14 15 19 23 21 22 24 24 25 28
93 99 100 80 64 69 60 55 60 64 61 60 58 39 37 33 35 65 50 65 92 78 73 96 100 100 100 98 91 88 63 24 14 10 10 13 14 17 16 19 18 18 19 19 20 20 22 26 31
100 100 100 71 67 65 58 58 57 56 54 58 53 34 34 38 45 41 71 80 62 76 100 100 100 100 93 85 73 48 15 11 11 14 17 17 18 20 20 20 20 21 21 22 20 21 23 26 29
97 99 96 78 69 80 63 46 64 61 53 50 39 36 33 34 56 70 77 91 96 100 100 100 89 89 81 55 28 12 12 14 16 18 18 19 21 21 22 23 28 28 26 24 22 21 21 23 24
100 100 100 100 97 86 84 83 75 67 59 35 36 34 51 66 92 90 99 100 100 100 100 95 86 65 30 12 13 14 15 17 18 19 19 20 23 25 25 32 32 30 33 34 28 26 29 31 34
100 100 100 100 100 100 100 100 82 69 66 58 96 100 100 100 100 100 100 100 100 100 89 72 50 14 11 14 17 18 21 22 21 21 22 24 25 28 35 38 36 36 40 42 38 34 32 32 35
100 100 93 100 100 100 100 99 89 100 96 89 100 100 100 100 98 100 100 96 84 72 44 19 12 14 16 18 24 29 32 31 30 31 30 30 29 31 33 28 26 30 35 42 46 43 40 38 35
100 100 100 100 100 100 100 99 100 100 100 100 100 100 100 100 100 100 100 85 65 31 18 14 15 18 20 26 38 41 41 37 34 29 25 23 23 22 22 22 27 31 33 33 35 43 42 43 48
100 100 100 100 99 100 100 95 88 90 99 100 98 100 100 100 100 92 77 53 22 18 14 16 18 26 40 40 40 31 26 24 23 22 20 23 24 24 25 32 36 34 34 33 36 34 35 44 42
100 100 100 100 100 100 100 91 78 97 100 100 100 100 100 94 79 66 24 16 14 16 22 22 20 21 27 32 34 31 26 23 21 20 19 19 20 23 26 31 32 37 40 38 36 36 34 34 34
99 100 100 100 100 100 99 100 90 99 94 91 94 98 85 62 21 16 14 16 20 22 22 22 24 23 24 25 30 29 27 22 20 18 22 25 26 28 36 41 42 45 46 46 48 46 45 45 42
68 92 92 87 98 100 99 79 71 71 74 60 42 29 16 15 14 14 17 18 18 22 22 23 23 24 23 20 25 26 25 21 19 22 28 31 28 31 43 53 59 65 68 65 61 57 54 50 48
37 47 61 64 77 63 54 51 33 30 25 21 19 11 14 15 18 20 21 21 18 18 22 23 20 16 16 21 19 23 22 23 25 27 30 31 46 69 78 85 90 89 82 81 81 80 77 68 65
36 35 31 30 32 28 22 22 20 16 13 12 13 15 17 22 21 23 21 20 19 17 16 16 16 16 19 21 27 33 32 34 38 47 48 61 71 82 91 92 88 86 82 70 63 56 54 58 62
26 23 19 18 18 16 13 12 12 13 12 14 17 20 22 25 27 20 18 17 16 17 19 21 20 22 23 26 32 32 35 42 53 65 73 79 79 90 90 84 72 65 57 51 51 55 61 64 64
14 12 11 11 12 12 11 12 14 15 18 20 22 25 31 34 30 25 20 18 22 23 26 26 27 28 28 29 31 47 62 64 72 73 75 63 47 40 37 38 43 45 48 57 61 64 70 74 77
13 12 12 12 13 13 14 16 18 20 22 22 28 30 26 21 20 19 22 24 27 26 25 24 27 29 36 50 55 53 56 66 67 55 45 37 38 41 42 42 44 52 58 58 54 64 70 78 83
14 12 12 13 16 19 24 28 28 26 26 26 27 23 20 20 20 23 26 25 24 23 24 40 47 49 48 52 57 64 73 63 46 40 39 41 51 51 48 47 54 53 55 55 53 59 61 69 80
14 14 13 14 17 20 22 22 22 23 21 18 19 20 20 22 26 24 22 23 25 33 47 58 59 59 55 55 66 66 54 46 44 46 48 52 53 51 52 51 51 54 58 59 60 68 74 84 99
16 14 14 15 15 16 18 16 21 18 17 18 18 20 21 24 22 21 23 25 35 48 66 68 66 60 68 76 59 56 54 49 50 49 54 58 57 61 68 74 76 72 67 70 82 90 100 94 89
17 17 16 15 16 16 18 17 16 17 17 16 18 21 23 23 24 27 24 32 54 69 72 74 70 73 67 60 53 56 48 47 52 52 64 74 84 93 93 82 77 81 85 85 78 84 84 72 72
20 20 19 19 16 15 16 18 14 20 16 18 21 23 25 26 28 27 24 41 70 77 70 73 66 54 52 58 56 52 53 58 62 72 79 86 95 93 79 78 81 85 79 86 78 78 83 80 68
36 38 26 21 20 16 17 17 15 17 17 17 19 22 25 27 24 24 32 54 78 80 82 87 69 62 63 64 57 52 55 67 75 78 89 99 90 84 94 96 96 89 91 79 81 77 79 59 52
28 29 31 40 27 19 18 17 17 16 18 21 23 26 23 22 28 36 60 75 75 65 61 56 54 54 49 49 58 64 71 79 88 96 99 96 96 88 87 86 81 85 89 87 79 66 59 51 42
22 23 26 27 33 30 22 20 17 18 19 21 21 21 30 48 60 67 67 62 56 53 52 53 60 51 54 66 73 83 89 96 100 99 92 77 83 87 81 73 75 74 78 60 58 51 38 32 20
29 24 23 22 23 23 20 22 16 18 18 22 37 57 65 81 73 65 65 57 49 51 58 52 44 56 72 87 92 96 99 83 77 95 100 96 93 84 79 78 68 57 46 42 36 31 17 12 11
40 38 38 36 37 35 38 51 40 35 43 53 62 68 61 64 59 51 44 39 40 45 45 53 62 77 88 91 90 84 90 100 98 73 67 70 70 67 78 54 38 33 30 26 17 12 10 8 7
42 41 44 44 50 52 45 62 63 50 49 66 64 58 54 49 47 43 37 42 50 54 59 68 77 91 87 100 100 100 78 75 68 60 63 65 56 38 29 23 24 22 16 12 10 8 7 6 6

GFSSGP_250_rhum_024.txt.gz
RH
100 100 100 100 100 93 85 64 48 74 96 94 95 81 64 90 84 83 75 66 59 57 48 30 25 33 43 54 57 59 76 89 87 99 88 90 56 49 33 13 10 10 10 11 12 16 23 22 30
100 97 100 100 100 100 100 86 62 55 87 86 86 83 86 77 72 67 60 59 57 53 47 31 30 34 53 65 66 75 92 99 100 96 71 49 31 16 10 10 10 12 13 14 24 33 25 20 20
100 100 100 100 100 100 82 83 98 82 69 85 85 79 78 72 57 54 51 45 47 43 45 42 33 43 66 83 96 100 100 99 90 70 43 18 10 10 11 14 16 16 17 18 19 20 20 20 20
100 100 100 100 100 94 98 80 100 98 92 74 64 70 74 62 64 52 42 34 34 39 40 48 67 85 97 100 100 100 100 79 63 31 14 10 12 14 16 17 17 17 18 18 19 18 18 19 21
100 100 100 98 98 100 85 89 100 100 88 81 71 74 70 62 49 50 40 46 54 55 79 100 100 100 100 100 100 93 70 53 32 15 11 12 14 15 15 16 19 19 19 19 20 20 19 19 19
100 100 100 100 94 100 100 98 99 84 85 73 73 62 59 49 50 58 60 62 64 94 100 100 100 100 100 100 86 69 45 29 12 12 14 16 18 18 19 20 22 23 22 21 22 24 25 25 22
100 100 99 89 100 100 100 100 94 95 95 83 67 74 83 84 68 60 57 88 99 100 100 100 100 100 99 84 66 42 23 13 14 16 17 19 21 23 23 24 23 23 23 24 24 28 33 33 35
100 100 100 100 100 100 99 86 97 98 99 100 100 100 100 85 90 97 90 100 100 100 100 100 99 96 84 72 39 16 18 16 20 20 22 25 23 22 21 20 20 20 21 26 28 30 37 43 42
100 100 98 100 84 100 100 100 97 90 83 91 99 100 100 100 100 100 100 100 100 100 100 99 94 84 50 26 16 17 18 19 23 24 24 23 21 18 17 18 18 20 22 26 28 31 34 37 40
100 100 94 100 93 93 99 100 100 100 99 98 100 100 100 100 100 100 100 100 100 98 91 84 60 38 17 18 22 22 25 29 26 23 22 21 20 18 18 18 20 23 24 28 32 36 36 36 35
100 100 100 100 100 88 100 100 100 100 100 100 100 100 100 100 100 100 100 100 99 86 58 31 20 15 20 22 25 26 25 23 23 25 24 22 19 18 20 22 23 26 24 32 40 45 46 49 49
100 100 100 100 92 94 100 100 100 100 100 100 100 100 100 100 100 100 91 82 52 26 17 16 18 20 24 23 22 24 22 19 19 23 21 20 18 20 23 23 25 32 41 52 51 54 57 62 62
100 100 100 100 100 100 100 100 100 100 100 100 100 100 100 100 96 73 42 22 14 12 13 16 21 23 23 23 22 17 15 15 17 20 21 21 20 20 23 24 27 37 42 48 52 58 65 62 63
94 100 100 100 100 100 100 100 100 100 100 100 100 98 97 68 43 23 16 15 14 15 18 18 17 17 17 18 20 17 16 16 19 25 25 25 25 30 37 44 46 47 54 64 72 79 72 57 57
30 30 31 33 48 72 92 100 100 74 96 97 92 64 29 20 15 15 14 16 17 21 17 16 68 69 14 16 17 17 19 23 29 29 29 34 44 43 42 41 50 60 58 52 47 46 44 46 46
25 22 22 25 34 36 49 76 86 72 55 34 27 18 15 15 14 17 18 18 17 21 21 85 21 18 23 22 21 24 24 24 26 29 41 56 52 45 53 53 46 39 38 43 45 44 45 46 48
36 42 46 62 73 78 80 67 43 35 26 20 19 18 18 18 17 19 26 22 20 18 19 19 21 25 23 23 24 26 27 31 37 45 47 56 50 51 44 43 44 46 47 51 52 49 49 52 54
57 60 71 62 38 32 25 20 17 14 13 14 17 18 17 19 22 22 17 19 19 18 22 24 24 31 56 38 44 43 47 48 50 46 39 48 41 43 39 38 40 44 48 49 48 55 58 58 58
26 25 18 15 14 13 12 12 12 15 18 19 20 21 20 21 21 19 19 19 19 24 24 21 22 26 36 45 46 52 47 40 40 38 36 41 43 44 44 46 46 51 55 61 74 73 72 69 65
13 13 13 12 12 13 15 17 22 24 25 29 25 25 22 22 18 18 19 24 23 20 21 23 28 36 45 53 58 59 50 40 38 38 41 42 42 46 51 59 58 61 67 70 67 69 68 66 66
14 14 14 13 13 14 16 14 23 22 22 19 23 23 19 18 18 20 21 22 20 20 22 24 30 51 69 60 55 49 42 45 44 47 49 46 48 53 55 58 66 73 76 81 80 75 64 64 69
17 15 14 14 14 14 18 14 15 25 18 17 16 17 17 17 21 23 21 20 20 23 24 24 29 50 73 72 61 51 51 52 51 53 56 59 60 60 62 72 71 67 65 64 66 78 85 82 73
19 17 17 16 15 15 16 16 13 16 18 17 16 19 20 22 21 20 20 21 22 24 25 27 46 66 62 63 58 52 53 58 62 55 59 67 71 71 74 71 69 70 61 63 63 69 67 69 67
28 23 21 19 18 17 16 23 15 14 15 16 18 19 20 20 19 19 20 21 22 25 37 63 68 57 52 51 54 64 77 76 79 82 74 67 72 88 89 80 69 63 63 65 66 67 68 79 77
28 28 30 37 43 27 23 25 18 18 16 15 16 18 19 20 18 18 20 22 35 66 76 70 68 66 70 67 62 61 69 82 71 65 73 82 83 76 80 75 68 61 67 73 66 63 65 54 50
20 22 25 29 32 30 40 35 24 21 19 16 15 16 17 18 19 20 25 57 80 81 71 65 66 50 42 45 57 64 62 64 67 74 81 95 99 76 51 61 62 57 53 58 57 44 28 18 15
37 40 35 31 26 28 26 28 27 25 27 21 19 19 21 25 34 52 74 81 76 58 54 49 46 49 58 59 60 66 86 100 100 100 84 59 52 50 53 56 55 50 44 37 27 16 13 13 12
52 48 50 50 53 52 37 34 30 32 39 40 40 38 49 47 65 75 65 51 50 50 51 46 42 53 68 79 94 100 100 88 75 61 54 50 51 55 56 47 35 29 26 18 14 14 12 12 11
52 55 58 57 59 56 63 58 35 40 36 43 48 46 71 57 56 50 48 49 46 44 46 57 73 76 82 95 99 88 77 67 56 48 43 49 51 54 36 24 20 15 14 14 13 13 12 11 9
34 35 35 36 39 46 57 84 54 57 44 47 48 40 44 43 40 40 42 40 48 56 64 60 61 80 92 88 78 68 57 49 49 44 44 48 47 31 21 17 16 14 12 12 11 10 8 7 6

GFSSGP_250_rhum_030.txt.gz
RH
100 100 100 100 100 100 100 99 90 99 100 100 100 78 78 97 100 82 83 83 81 82 73 80 75 59 56 57 46 46 42 44 36 46 50 60 76 88 74 78 37 19 12 10 10 11 13 15 16
100 100 100 100 100 100 100 100 99 100 100 100 100 100 100 100 98 96 100 100 100 91 86 84 78 63 58 51 49 40 39 49 62 76 85 81 86 82 69 39 22 12 12 12 13 14 15 16 17
100 100 100 100 96 95 94 96 100 100 100 100 98 98 100 100 100 94 90 88 84 87 78 69 64 64 60 53 55 56 82 90 88 86 92 100 87 78 47 24 13 13 13 16 15 14 14 15 15
100 100 100 100 100 100 100 100 100 100 100 100 100 93 85 99 91 90 85 85 83 77 73 77 67 77 54 71 76 90 92 95 100 100 100 97 74 54 26 14 15 15 14 15 14 13 13 13 15
100 100 100 100 100 100 100 100 100 100 100 100 100 100 100 100 100 100 82 74 73 80 84 77 85 79 94 84 91 100 100 100 100 95 89 83 68 42 15 15 16 15 14 14 15 14 14 13 12
100 100 100 100 100 100 100 100 100 100 100 100 100 100 100 100 100 100 100 100 79 88 100 89 78 78 88 100 100 100 100 100 98 96 88 66 43 16 17 19 20 20 17 16 15 15 14 14 14
100 100 100 100 100 100 100 100 100 100 100 100 100 100 100 100 100 100 100 100 100 99 92 90 94 100 98 100 100 100 100 100 95 85 67 40 19 21 22 23 21 20 18 18 17 16 15 16 18
78 100 100 100 100 100 100 100 100 100 100 100 100 96 95 89 72 80 90 88 87 100 100 100 100 100 100 100 100 100 96 96 87 67 35 19 18 18 20 19 18 20 21 18 18 17 17 19 20
100 74 100 100 100 100 100 100 100 98 100 99 97 98 100 100 100 97 94 100 93 97 99 100 100 100 100 100 100 100 96 91 74 44 20 17 18 19 21 17 14 14 16 17 19 19 19 20 20
100 100 100 100 100 100 100 100 100 100 100 100 91 87 99 100 100 95 86 92 100 100 100 100 100 100 100 100 100 98 86 74 36 28 26 24 20 21 20 18 16 15 16 19 20 18 19 19 23
100 100 100 100 100 100 100 100 100 100 92 98 100 96 96 100 100 100 100 99 100 100 100 100 100 100 99 100 97 79 38 20 66 97 86 74 60 20 16 16 16 18 24 22 22 26 27 34 40
100 100 100 100 100 100 100 100 100 100 100 89 82 85 99 100 100 100 100 100 100 100 100 100 100 100 99 94 50 33 69 88 100 100 100 69 35 20 17 18 20 22 25 30 40 42 40 41 44
100 100 100 100 100 100 100 100 97 97 100 100 100 100 100 100 100 100 100 100 100 100 100 100 100 100 90 37 53 100 100 100 100 100 100 44 29 22 22 24 26 30 38 44 45 40 40 36 34
100 98 100 100 100 100 100 100 100 100 100 100 100 100 100 100 100 100 100 100 100 99 96 94 80 70 56 53 99 100 88 100 100 100 98 43 32 34 34 37 37 36 35 35 32 31 33 34 34
100 100 100 100 100 100 100 100 100 100 100 100 99 100 100 100 100 100 98 88 90 81 64 50 31 42 51 55 100 100 100 81 100 87 50 32 30 32 38 39 38 41 35 34 34 36 36 36 37
100 100 100 100 100 100 100 100 100 100 100 100 100 100 99 78 65 73 64 55 59 49 34 23 24 64 100 79 96 100 100 83 95 53 23 26 35 40 50 41 40 39 38 41 44 47 44 41 44
100 98 97 100 100 98 100 98 99 96 97 94 94 69 43 38 58 58 51 52 37 27 20 25 45 22 62 69 46 81 98 74 27 22 19 21 26 32 44 52 57 56 54 52 48 50 53 54 49
53 54 57 63 59 52 54 51 48 48 43 41 47 46 57 55 44 36 36 26 25 20 20 21 58 58 71 47 44 42 29 19 18 19 19 18 22 34 46 47 47 49 50 49 49 54 53 44 44
32 34 33 36 38 39 39 48 47 48 46 42 36 29 26 21 21 18 21 21 20 23 20 15 17 17 20 24 23 21 19 19 18 19 20 33 53 57 59 64 63 52 50 50 46 38 35 34 31
46 55 54 52 52 48 42 36 31 28 24 19 16 16 16 17 17 23 24 23 22 18 16 15 16 16 17 18 19 19 19 20 20 20 35 49 54 48 42 42 41 38 36 35 36 36 36 37 38
47 44 36 27 21 17 15 14 13 14 14 20 26 26 20 16 17 18 17 16 16 17 19 19 19 18 18 20 22 21 21 20 33 58 62 53 47 44 41 37 35 35 34 34 35 41 46 49 55
16 16 16 16 16 16 18 16 15 16 17 17 16 17 16 16 16 16 16 15 16 17 18 18 18 18 20 20 18 18 36 59 59 52 48 46 38 34 36 38 37 35 37 40 42 47 49 54 57
18 19 18 18 19 19 17 16 17 17 18 18 18 17 18 20 22 18 16 17 18 17 17 16 17 18 18 21 48 67 59 54 59 50 40 36 46 60 71 62 51 51 50 51 56 65 70 65 62
26 24 23 24 25 24 21 20 24 25 27 31 39 34 28 34 31 22 24 21 20 25 19 21 27 41 54 57 53 58 65 53 43 45 50 54 51 51 47 48 58 63 74 73 76 69 63 55 42
19 19 21 23 22 22 29 28 27 25 26 29 30 30 31 32 32 30 20 21 43 43 52 54 62 60 55 56 59 50 40 37 38 42 48 50 54 56 64 75 83 74 62 60 57 54 46 33 24
52 53 54 55 50 43 48 49 42 28 30 31 38 51 61 64 60 44 39 50 54 61 57 53 46 52 62 59 48 45 52 55 50 54 55 71 79 73 72 69 59 60 54 47 32 25 19 16 13
51 52 53 51 46 43 45 44 42 40 34 32 33 34 34 32 32 29 28 29 28 36 39 38 38 44 52 59 57 43 38 43 53 68 92 90 64 66 60 49 49 41 31 21 14 12 10 9 8
47 43 43 44 41 37 38 36 36 36 36 38 32 28 27 27 28 34 34 36 44 48 48 44 44 43 34 32 40 48 54 69 83 80 68 61 58 53 49 41 28 21 19 12 8 7 7 6 6
44 40 40 52 60 46 34 31 33 36 31 32 37 38 35 34 34 33 35 42 40 37 34 35 37 43 49 47 54 65 73 72 63 62 62 66 55 46 41 35 29 20 13 8 7 6 5 4 4
49 58 56 38 32 46 51 46 46 43 40 42 40 43 44 44 42 41 40 38 41 44 46 49 53 48 53 64 66 64 61 69 61 60 67 53 49 42 36 30 18 10 9 6 6 5 4 4 3

GFSSGP_250_rhum_033.txt.gz
RH
100 100 100 100 100 100 100 100 100 84 96 100 94 84 97 100 100 100 86 93 100 87 87 93 94 70 80 73 73 59 52 39 52 49 50 64 52 55 61 51 55 77 67 50 29 12 11 11 13
100 100 100 100 100 100 100 100 100 100 100 93 100 100 100 100 100 100 100 100 97 100 100 97 80 77 74 71 62 56 51 52 59 64 59 48 60 60 59 75 80 73 60 31 13 12 13 14 13
100 100 100 100 100 100 100 100 100 100 100 99 100 100 100 100 100 100 99 98 100 98 87 91 81 74 74 59 54 48 58 65 74 72 74 74 66 74 94 79 79 65 32 15 13 13 14 14 12
79 100 100 100 100 100 100 100 100 100 100 100 100 100 100 100 100 100 87 72 76 88 81 78 84 87 86 77 68 70 78 78 85 85 87 87 92 80 86 87 67 44 16 14 14 13 14 14 12
25 97 100 100 100 100 100 100 100 100 100 100 100 100 97 85 85 98 99 90 90 83 91 99 92 74 88 92 86 100 92 100 95 95 87 81 82 90 89 75 49 19 17 18 18 17 16 15 14
25 40 100 100 100 100 100 100 100 100 100 100 100 100 100 100 100 100 97 98 100 98 91 90 88 87 90 93 79 98 100 100 100 98 98 90 96 89 75 58 28 19 20 22 21 18 18 19 16
30 28 55 100 100 100 100 100 100 100 100 100 100 100 100 96 99 100 100 95 89 87 85 91 99 95 94 85 98 100 100 87 99 89 92 100 92 86 60 31 17 18 17 18 16 14 14 14 16
66 39 30 67 100 100 100 100 100 100 100 100 100 100 100 100 100 100 100 92 76 76 100 100 100 99 90 100 100 100 100 93 94 85 100 100 90 67 51 32 28 25 20 19 19 17 15 18 19
81 100 70 51 61 100 100 100 100 100 100 100 100 100 98 97 80 92 94 99 100 100 100 100 100 100 100 100 100 93 100 97 98 100 100 78 53 58 71 62 60 65 24 17 16 17 19 23 22
100 100 100 99 99 100 100 100 100 100 100 98 93 100 97 97 99 100 100 100 100 100 100 100 100 100 100 98 100 100 100 100 100 100 76 53 63 74 74 83 64 24 18 18 19 21 22 25 28
74 100 100 86 100 100 100 100 100 100 100 100 92 99 100 100 98 100 91 100 100 100 100 100 100 100 100 100 100 100 100 100 98 76 74 96 88 100 100 95 60 27 22 24 25 25 26 31 37
100 100 100 100 95 100 100 100 100 100 100 100 100 100 100 100 100 100 99 100 100 100 100 100 100 100 100 100 100 100 100 96 78 71 96 99 99 87 95 95 59 35 35 35 36 35 34 32 30
100 100 100 100 100 97 100 100 100 92 87 91 95 100 100 100 100 100 100 100 93 95 100 100 100 97 96 94 95 98 94 81 70 85 91 77 99 100 100 71 46 33 30 37 43 41 39 36 32
100 100 100 100 100 99 100 100 100 100 100 100 100 100 100 100 100 100 98 87 84 98 100 100 96 90 82 100 96 74 68 49 61 100 100 100 90 100 95 50 26 24 29 34 38 44 52 51 46
100 100 100 100 100 100 100 100 100 100 100 100 100 100 100 100 100 100 99 90 98 100 98 83 72 67 72 54 36 28 36 93 100 100 98 100 88 99 79 48 20 19 20 26 34 47 50 50 51
100 100 100 100 100 100 100 100 100 100 100 100 100 100 100 100 100 100 100 99 88 80 72 65 58 64 63 83 100 97 92 51 77 90 63 100 80 85 33 21 21 19 25 46 54 51 46 43 47
88 100 100 100 100 100 100 100 97 100 100 100 100 100 99 98 94 91 79 71 66 64 55 66 91 100 100 100 100 98 96 72 64 62 47 36 24 21 22 21 22 22 44 52 51 48 49 52 50
80 86 91 100 100 100 100 100 98 96 94 87 82 62 62 64 59 55 51 47 57 49 36 65 67 100 100 100 100 97 69 27 30 31 20 19 20 20 20 21 23 48 62 58 50 49 49 48 49
72 73 67 77 84 92 88 78 58 60 64 55 52 44 47 44 40 33 32 32 33 29 39 73 100 84 82 76 33 16 15 16 16 17 18 18 18 19 23 36 46 45 42 44 42 38 40 41 41
41 36 39 41 42 40 38 40 42 41 40 40 35 29 24 21 18 20 24 23 25 53 30 46 29 20 16 17 17 18 17 17 18 18 19 20 26 43 45 34 33 30 30 31 33 34 32 33 35
37 38 44 49 49 46 45 41 29 22 17 15 16 16 14 15 18 21 24 25 26 25 22 19 18 17 17 17 16 17 17 17 18 21 30 40 41 37 35 35 32 32 34 34 32 30 30 33 36
48 36 34 34 28 22 19 16 16 19 20 17 16 15 15 16 16 17 18 17 17 17 16 15 16 17 18 18 19 20 26 34 39 38 36 33 32 34 33 29 31 35 36 36 41 46 47 50 52
19 20 18 18 16 16 16 18 19 19 19 19 20 22 22 21 20 19 18 19 20 18 17 18 17 18 20 28 34 42 48 49 44 40 43 47 47 45 39 36 42 46 47 50 52 50 56 60 59
19 19 20 21 20 18 20 23 30 28 28 29 30 30 31 33 31 29 26 25 22 22 30 32 34 43 47 54 57 55 51 48 48 46 50 54 45 42 48 52 46 50 56 58 56 59 60 52 50
19 18 17 20 26 28 28 32 38 45 54 57 60 59 55 61 68 62 55 44 41 43 53 56 58 61 65 68 69 65 55 48 45 42 41 50 53 50 44 47 52 52 54 59 59 50 46 38 29
25 38 42 43 54 48 46 42 41 38 38 36 34 32 31 33 29 30 34 38 36 40 45 47 48 46 49 50 50 48 49 53 54 59 60 47 45 50 54 57 62 55 57 44 36 33 26 21 17
63 51 43 41 40 38 42 41 33 33 32 31 31 30 38 50 56 49 42 39 39 43 43 43 51 54 53 55 58 53 51 53 52 43 44 51 56 61 54 47 47 44 34 34 30 29 23 14 10
44 42 41 40 40 44 48 50 47 44 43 40 39 38 37 38 42 44 44 44 44 44 44 44 44 47 48 48 48 48 44 42 42 48 56 60 60 53 48 48 38 37 40 32 23 13 8 7 6
49 45 46 50 48 50 49 40 39 42 41 40 40 38 35 34 36 38 40 42 40 41 40 41 42 40 39 37 37 37 39 46 59 60 58 59 49 45 47 49 46 40 27 16 8 7 6 5 4
52 56 61 62 59 48 38 43 48 42 41 41 44 48 49 52 57 55 52 48 44 37 34 35 39 39 41 40 40 49 61 66 62 60 55 46 47 53 49 40 30 21 14 8 6 5 4 4 3

GFSSGP_250_rhum_036.txt.gz
RH
23 22 50 100 100 100 100 100 100 100 100 97 100 100 100 100 91 83 90 100 100 95 72 60 50 72 76 93 92 78 85 72 48 50 56 67 56 58 48 66 59 60 48 50 49 48 48 33 18
24 24 38 79 100 100 100 100 100 100 100 100 100 100 100 100 100 78 92 92 83 72 69 100 100 100 94 83 92 74 69 48 60 64 55 66 56 67 66 62 69 67 52 46 64 53 31 20 13
25 25 24 47 100 100 100 100 100 100 100 100 100 100 100 100 100 100 93 94 90 98 92 98 87 100 87 90 75 63 57 55 69 82 79 66 58 82 86 79 67 64 63 67 61 42 23 16 15
27 28 25 31 92 100 100 100 100 100 100 100 100 100 100 100 100 100 100 100 100 100 94 88 95 100 98 78 72 62 71 78 83 75 72 56 67 77 75 76 86 68 73 70 49 30 18 17 16
28 31 28 26 42 100 100 100 100 100 100 100 100 100 100 100 100 100 100 100 100 99 88 95 97 80 71 76 86 96 88 79 77 68 72 87 91 93 66 83 79 84 76 62 39 24 22 20 17
24 28 28 27 28 51 100 100 100 100 100 100 100 100 100 100 100 100 100 90 79 80 82 75 74 70 90 94 94 86 90 90 82 94 100 96 93 99 100 90 80 83 69 57 38 35 43 25 17
25 29 29 30 30 28 83 100 100 100 100 100 100 100 100 100 100 100 95 98 92 100 92 94 100 89 98 91 93 96 100 100 100 100 100 88 100 91 88 92 87 73 61 62 52 54 38 18 15
31 36 37 36 33 34 36 86 100 100 100 100 100 100 100 100 94 96 99 98 95 93 86 97 99 97 93 98 100 100 100 100 100 90 96 100 100 99 100 84 80 64 68 66 79 50 19 17 16
39 45 49 52 38 41 37 94 100 100 100 100 100 100 100 96 95 100 92 83 86 100 99 97 100 100 91 100 100 100 99 98 100 100 94 98 98 97 85 88 71 77 75 63 65 60 22 22 21
49 52 63 63 63 51 44 49 80 100 100 100 100 100 100 100 100 100 94 80 100 100 100 100 100 99 100 100 100 100 100 100 100 98 100 100 100 99 85 79 76 80 71 74 79 42 31 34 33
75 77 100 100 68 77 72 58 64 94 100 100 100 100 97 100 100 100 98 96 100 100 100 94 85 98 100 100 100 100 100 97 100 100 100 98 99 88 79 78 86 76 70 77 68 49 31 32 35
96 100 100 100 100 100 100 100 100 100 100 100 100 100 100 97 100 100 100 100 99 99 99 90 96 100 100 100 100 100 100 100 100 100 100 95 82 89 79 73 74 74 75 84 66 41 31 26 25
100 100 100 100 100 100 100 100 100 100 100 100 100 100 100 97 100 99 97 94 100 100 100 100 100 100 100 95 100 95 100 100 100 95 93 71 75 69 87 92 86 83 74 76 94 69 23 21 24
97 100 100 100 96 96 97 92 96 95 100 96 98 100 95 88 92 100 100 100 93 100 100 100 100 99 98 88 85 98 100 100 92 60 44 64 80 65 78 89 91 67 77 82 100 56 23 22 21
97 93 100 100 100 100 100 100 100 100 100 100 100 100 100 100 100 100 100 100 100 100 100 100 100 95 86 92 100 94 91 79 56 63 78 94 98 99 86 61 86 78 84 100 73 25 23 22 26
100 100 100 100 100 100 100 100 100 100 96 83 100 100 100 100 100 92 100 100 99 95 93 87 90 74 92 83 88 100 100 88 61 87 87 79 78 77 48 23 28 31 23 22 22 21 21 26 53
100 100 100 100 100 100 100 100 100 99 100 90 97 100 100 95 93 89 95 95 88 78 71 72 78 82 95 100 100 100 100 100 100 100 94 83 34 22 20 18 20 20 20 20 20 21 26 46 43
99 100 100 100 100 100 100 100 100 100 100 97 100 100 100 97 92 85 74 68 54 49 48 40 62 85 100 100 100 100 100 100 100 100 56 19 17 18 19 20 19 19 20 20 22 36 45 38 39
95 91 88 92 94 96 99 100 100 100 97 94 88 90 71 67 64 66 56 40 32 27 27 59 100 100 100 100 100 100 100 95 76 55 16 18 18 18 18 18 19 21 29 43 50 49 50 45 42
79 78 77 75 72 72 69 62 62 74 72 65 59 58 48 40 31 21 23 34 44 78 62 58 52 72 72 61 74 58 68 34 18 17 19 19 20 25 32 36 40 38 32 31 32 34 34 35 33
46 51 43 38 33 36 39 42 45 44 42 42 40 31 20 16 17 25 28 30 31 28 29 29 25 23 21 21 21 20 18 18 19 20 20 31 41 41 40 38 36 34 35 32 28 27 27 29 30
32 36 40 47 52 50 50 36 25 24 24 21 18 16 15 16 17 18 16 16 16 16 17 17 17 18 21 27 24 21 20 23 31 46 47 41 37 38 39 36 31 29 27 26 29 37 42 46 47
51 51 51 45 39 25 18 18 18 16 17 17 18 19 19 19 20 20 21 25 26 28 29 30 34 47 47 33 38 47 48 44 39 34 33 34 37 38 35 34 34 35 36 40 45 50 50 54 52
38 29 22 19 18 19 22 22 21 24 25 25 24 25 35 41 41 37 36 35 33 33 32 31 33 34 34 31 30 29 29 30 33 35 36 37 37 35 35 39 43 44 45 51 57 63 54 46 43
21 22 24 23 20 21 24 31 28 33 40 38 38 36 34 31 31 31 29 30 32 30 30 34 36 36 36 37 37 38 39 38 37 37 37 39 47 55 54 51 52 62 66 63 60 51 41 34 31
20 18 22 36 38 40 37 41 40 36 35 36 38 40 43 44 43 42 40 41 43 43 43 41 39 37 39 40 39 40 41 41 42 46 52 57 61 60 58 61 66 63 56 45 41 30 28 28 23
31 45 48 41 36 32 33 36 40 45 48 52 51 48 45 43 42 46 48 49 45 44 45 48 48 46 45 42 38 36 44 54 65 68 68 64 58 59 64 61 50 45 41 36 32 27 22 18 13
46 38 37 39 40 44 47 50 49 52 48 43 41 39 36 37 38 40 42 42 46 49 48 46 44 42 40 39 42 51 60 58 56 58 60 59 58 58 55 51 44 36 31 24 23 18 13 10 7
39 44 44 42 49 55 54 55 53 47 41 38 36 35 36 37 41 45 49 53 54 56 56 52 47 46 48 53 57 56 54 54 56 58 54 49 52 50 44 41 34 26 22 18 13 10 7 6 6
47 49 50 52 54 56 59 57 51 43 40 38 37 38 38 43 41 39 39 44 50 54 55 51 49 50 50 48 49 51 51 52 50 48 54 54 52 51 43 35 28 24 16 11 7 6 6 5 4

GFSSGP_250_rhum_042.txt.gz
RH
9 13 16 15 16 16 19 22 24 25 23 36 88 100 100 100 99 99 86 85 93 100 100 100 100 100 100 100 100 100 100 100 83 59 57 48 37 58 80 57 64 65 73 43 44 78 95 70 68
8 9 13 15 16 19 18 23 24 27 28 30 97 100 100 100 100 100 100 100 100 100 100 100 100 98 100 100 100 99 99 82 81 65 53 44 44 54 69 57 66 60 54 46 88 97 73 66 53
8 9 11 13 16 16 17 22 28 29 32 31 54 100 100 100 100 80 98 100 100 100 100 100 98 88 100 100 98 88 79 74 60 62 47 56 84 76 64 57 63 52 57 99 96 70 75 65 53
8 8 9 10 12 14 16 19 22 31 37 35 38 100 100 100 100 97 98 100 100 100 100 97 93 97 88 85 75 60 64 60 56 51 77 89 99 81 61 65 70 72 100 100 98 82 74 69 62
11 9 9 10 10 12 14 15 16 28 32 42 41 56 100 100 100 100 100 100 92 89 97 96 94 91 79 63 62 70 68 76 85 95 92 93 87 70 84 85 90 100 99 100 84 64 62 70 86
12 10 9 10 11 12 12 12 13 24 38 49 47 40 76 100 100 100 100 100 100 100 100 90 89 87 83 72 85 92 97 100 96 89 92 72 80 78 93 82 92 98 97 79 71 67 78 88 83
10 10 11 10 10 10 13 14 17 24 38 44 72 47 43 88 100 100 99 100 100 100 100 100 100 96 99 100 88 89 86 100 87 80 73 55 78 99 100 100 100 100 82 79 74 76 83 76 65
15 16 14 14 13 13 16 18 21 26 42 45 50 61 81 84 100 100 100 100 100 100 100 100 100 100 98 100 100 100 93 87 86 94 95 100 90 100 100 91 96 86 79 76 71 68 79 47 46
20 21 21 27 25 25 25 25 30 34 45 52 54 53 69 86 100 100 100 100 100 100 100 100 100 100 98 95 99 100 93 98 100 100 99 100 100 100 100 96 93 87 87 70 71 60 44 55 58
39 42 46 46 47 45 48 44 45 46 50 64 64 60 90 100 100 100 100 100 100 100 100 100 100 100 100 100 91 81 98 88 96 100 100 100 100 94 88 98 89 88 72 71 52 44 52 44 41
72 67 72 74 74 82 98 65 58 60 76 81 85 90 100 100 100 100 100 100 100 100 100 100 100 97 82 94 100 100 100 100 100 100 97 100 100 96 82 83 75 67 61 54 43 48 49 54 54
83 90 94 98 89 85 100 82 78 73 75 99 86 78 71 94 100 100 100 100 100 100 100 100 100 100 100 100 100 100 100 100 100 85 100 100 97 97 86 65 56 44 47 53 42 44 46 53 63
88 94 100 100 100 100 93 84 82 90 90 92 96 86 89 85 94 100 100 100 100 100 100 100 100 100 99 98 92 93 100 94 82 100 100 99 93 85 67 47 33 35 32 33 30 44 74 90 74
100 100 100 100 100 100 100 99 99 100 100 100 100 100 100 100 100 100 100 100 100 100 100 100 97 85 94 100 100 98 76 79 99 100 95 99 81 65 51 45 40 43 36 50 89 100 100 83 83
100 100 100 100 100 100 100 100 99 100 100 100 100 92 98 100 100 100 100 100 100 100 100 89 100 100 100 92 55 96 100 100 93 100 94 87 89 90 77 78 70 69 79 100 100 100 92 71 74
100 100 100 100 100 100 100 100 100 99 93 95 100 100 100 100 100 100 98 81 98 100 95 93 59 49 63 72 99 98 90 76 78 100 100 100 100 100 91 100 100 100 100 100 100 96 100 80 67
100 98 100 100 100 100 100 100 100 100 100 100 100 100 98 83 74 72 94 98 100 84 89 61 62 100 100 99 86 96 100 100 100 100 100 98 97 96 100 100 100 100 100 100 100 100 100 33 27
100 100 100 100 100 100 100 100 100 100 100 100 100 100 95 92 100 100 100 100 90 94 100 100 97 88 74 84 94 100 100 100 100 100 100 100 100 100 100 100 100 100 100 100 100 100 36 32 38
100 100 100 100 100 100 100 100 100 100 100 100 100 100 100 100 89 86 82 86 96 93 93 87 61 37 45 74 49 74 100 100 100 100 100 100 100 88 99 100 100 100 58 30 42 41 51 49 52
100 100 100 100 100 100 100 100 100 100 100 100 99 91 75 72 78 80 74 74 73 44 20 16 18 18 21 21 37 31 23 44 84 85 60 62 98 99 92 68 91 56 37 37 35 37 40 40 42
100 100 100 100 100 100 98 85 74 75 67 70 69 65 67 69 56 44 32 21 19 18 19 22 26 31 30 30 31 33 35 36 36 39 36 36 36 38 37 37 34 37 42 40 39 40 47 50 51
100 100 100 99 98 92 87 81 77 75 71 67 60 51 42 26 18 19 18 21 29 35 37 34 33 32 32 34 36 37 38 37 39 42 47 49 50 48 48 47 45 44 40 39 45 49 52 57 61
100 100 96 92 76 65 60 61 58 47 47 40 34 22 17 20 22 30 34 33 34 37 38 38 38 39 40 42 45 48 52 56 56 51 45 38 35 34 34 35 37 43 46 49 52 55 58 58 62
48 32 28 31 37 46 43 43 46 34 24 19 20 25 36 38 34 35 40 42 41 39 36 34 32 31 31 32 34 36 37 38 36 34 31 31 34 40 43 45 46 50 52 55 70 77 72 62 58
45 46 61 58 50 48 41 25 21 23 30 42 44 41 41 44 47 46 43 39 35 33 34 35 33 34 33 31 31 30 31 31 32 36 40 47 44 43 44 44 50 58 64 73 72 67 62 61 52
42 41 38 30 26 22 23 24 38 44 40 40 44 47 50 50 47 41 36 35 35 36 36 33 31 34 35 37 39 39 39 39 41 48 50 47 43 44 50 58 68 71 72 67 70 66 58 44 39
24 21 22 23 23 22 37 46 41 44 48 50 52 52 51 46 38 39 37 34 34 36 42 50 57 62 68 72 59 53 54 58 55 48 46 44 44 50 62 69 78 76 77 75 67 54 41 30 24
23 23 23 26 40 46 42 50 57 60 60 60 56 54 46 41 39 40 47 53 55 52 50 51 54 59 59 60 58 55 54 52 49 48 43 44 51 60 72 71 72 71 67 54 48 38 30 27 20
25 34 52 45 43 45 51 60 61 64 62 61 59 54 46 41 36 41 37 45 58 67 65 69 71 65 64 55 45 46 46 45 46 44 45 55 61 70 76 72 78 63 50 39 33 28 24 17 11
60 52 46 50 54 60 61 64 61 65 62 61 62 55 45 39 34 40 42 57 63 64 72 83 78 70 68 59 45 47 50 48 44 46 56 68 73 76 81 81 72 55 45 39 27 18 15 11 9

GFSSGP_250_rhum_045.txt.gz
RH
9 9 9 10 12 15 16 16 13 13 18 18 26 26 28 73 98 100 100 100 100 100 100 100 100 100 100 100 100 100 100 100 100 100 98 79 81 69 55 47 47 42 43 64 74 61 49 49 60
8 9 9 9 10 14 15 15 13 12 26 18 30 34 30 39 71 98 100 100 100 96 100 100 97 86 98 98 100 100 100 100 91 93 96 84 70 50 35 53 52 52 75 88 55 43 44 70 87
8 8 9 9 10 12 13 10 10 17 20 23 23 26 30 30 32 57 100 100 99 100 100 97 86 97 99 98 100 100 100 100 97 82 69 65 56 45 69 48 44 73 82 53 50 56 71 95 100
8 8 8 10 10 10 10 9 12 16 17 20 22 25 30 32 37 38 94 100 100 99 88 92 95 100 99 89 100 100 94 74 84 70 50 58 58 53 57 62 90 64 50 57 79 77 100 100 88
8 9 10 12 10 9 9 10 12 12 13 16 18 24 31 36 42 54 49 68 100 100 100 97 100 97 88 84 92 83 80 63 60 68 51 64 70 66 74 74 71 55 72 100 74 96 100 94 70
12 11 9 10 10 8 8 9 10 12 13 14 16 23 41 100 100 100 62 90 100 98 100 87 75 85 88 92 79 68 68 87 60 92 96 75 69 73 72 67 69 100 91 86 88 83 88 73 67
15 13 11 9 8 9 9 99 46 16 15 12 14 23 39 42 60 97 99 100 100 100 100 100 99 100 99 100 96 100 95 94 99 82 100 84 74 89 88 86 100 99 100 100 85 72 73 79 78
16 15 11 13 10 10 10 17 18 15 17 13 14 21 37 46 100 100 100 100 100 100 100 100 100 100 100 100 100 100 100 88 99 100 100 98 96 98 100 100 100 100 100 93 79 70 85 74 77
16 24 23 24 20 43 100 89 25 18 23 19 15 24 50 100 100 94 100 98 100 100 100 100 100 100 100 100 100 100 100 100 100 97 90 100 100 100 100 100 98 94 84 71 70 82 63 60 46
30 40 31 34 56 100 100 94 31 34 61 27 26 31 43 75 100 100 100 100 83 95 100 100 100 100 100 100 100 89 99 100 100 100 100 100 100 100 100 99 83 79 74 84 67 49 39 34 35
59 65 54 81 100 100 99 64 72 50 62 31 33 45 79 64 93 100 100 99 100 100 100 100 100 97 86 100 95 78 94 100 100 100 100 100 100 100 97 88 85 68 86 72 56 40 36 33 35
100 100 90 80 76 94 84 86 97 82 64 53 48 64 62 78 94 84 100 100 100 100 100 100 100 100 100 96 100 99 100 100 100 100 100 100 100 100 98 99 84 84 65 56 43 36 38 39 42
100 100 97 99 100 95 98 100 78 86 89 80 74 72 82 84 85 78 99 100 100 100 100 100 89 90 96 96 100 100 100 100 97 100 100 100 100 91 97 84 63 62 46 34 33 49 50 54 70
100 98 100 100 100 100 100 100 100 97 100 96 88 84 97 100 86 86 90 100 100 100 100 100 100 100 100 100 100 97 90 94 99 85 98 92 94 90 78 77 56 58 50 64 57 44 74 100 100
100 100 100 100 100 100 94 100 100 100 100 100 100 100 100 100 100 100 100 100 100 100 100 100 100 100 94 100 95 100 83 70 82 100 90 91 79 72 68 85 97 97 100 68 69 100 100 100 100
100 100 100 92 100 99 79 85 100 100 100 100 100 100 100 100 99 96 95 87 88 100 95 94 98 97 100 100 68 72 86 100 100 91 68 87 95 100 100 100 99 96 82 100 100 100 99 98 100
100 100 97 91 100 100 100 100 100 100 100 100 78 81 84 100 100 97 91 90 88 99 97 90 80 91 75 84 91 100 100 100 100 100 100 100 98 78 100 100 100 92 95 100 100 100 100 96 100
100 100 100 93 89 87 100 100 100 100 100 78 100 99 100 100 98 100 100 100 100 100 100 99 100 100 100 100 100 100 100 98 99 100 100 100 97 100 100 100 100 100 100 100 100 54 79 83 69
98 100 98 98 100 100 100 100 100 100 100 100 100 100 100 99 91 100 100 100 100 98 98 79 82 80 94 83 75 33 21 57 52 84 65 79 98 100 99 100 100 100 100 100 100 52 52 52 47
99 100 100 100 100 100 100 100 100 100 100 100 100 100 100 100 100 100 97 87 70 69 83 88 87 68 35 19 26 34 31 37 45 35 35 60 51 43 41 44 42 40 39 35 33 37 40 42 45
100 100 100 100 100 100 100 100 100 100 100 100 100 100 100 88 81 78 79 72 68 62 43 24 21 25 28 29 28 28 29 29 29 29 31 33 32 32 35 35 35 34 34 36 38 44 48 47 49
100 100 100 100 100 100 100 100 100 88 77 79 81 82 86 86 79 70 60 38 22 24 31 33 31 30 28 27 27 27 28 28 31 33 36 37 40 37 38 37 36 36 41 44 41 46 54 60 65
100 100 100 100 100 100 96 99 90 94 91 78 79 74 57 48 37 21 21 35 35 34 33 32 32 30 30 32 32 32 32 31 29 27 27 29 28 28 29 32 44 45 42 46 54 51 57 57 56
100 100 100 95 88 81 80 84 79 66 64 49 43 37 23 20 27 35 34 36 36 37 35 32 32 31 30 33 36 41 43 45 50 55 53 51 48 49 50 48 44 50 53 53 53 58 59 55 53
91 91 94 96 82 57 44 42 42 43 35 24 21 25 32 35 35 38 40 40 38 36 34 33 32 34 38 47 52 54 54 58 60 55 51 49 49 48 45 45 48 50 53 54 61 62 68 64 56
51 40 41 43 50 49 49 43 29 24 23 34 38 36 37 39 44 45 40 38 37 37 38 38 38 48 60 69 70 66 67 63 56 46 48 51 52 50 49 49 52 53 64 68 73 72 64 57 50
63 60 47 41 34 30 26 23 26 43 43 40 43 45 50 52 51 43 40 38 37 35 39 45 49 54 54 52 52 59 59 63 63 62 62 64 58 53 49 50 52 61 66 67 71 63 55 43 32
44 34 27 24 24 25 31 51 49 39 42 48 52 57 57 57 52 46 42 36 36 38 40 46 41 41 44 45 47 59 68 70 70 69 71 74 67 57 57 61 63 71 70 76 68 62 44 26 23
25 27 32 29 31 55 59 45 44 52 58 61 65 64 64 62 56 49 44 37 36 37 44 46 43 44 44 44 50 56 75 77 75 73 77 77 68 62 62 61 66 72 77 71 61 55 43 36 29
35 28 28 56 66 55 51 59 59 61 63 68 70 66 67 67 65 55 49 46 44 46 46 45 47 53 56 54 49 51 80 82 76 74 82 72 64 63 64 67 82 83 76 73 53 36 31 24 20

GFSSGP_250_rhum_048.txt.gz
RH
7 7 8 8 9 10 11 13 14 12 11 17 17 22 18 20 37 38 50 76 86 93 98 88 98 100 100 100 100 95 73 74 90 100 98 90 98 99 100 100 99 88 70 42 37 36 30 26 31
7 8 8 8 8 9 11 10 8 11 52 32 21 44 42 46 26 28 29 42 42 91 99 98 97 93 85 78 84 75 67 63 76 88 76 77 100 98 94 78 66 53 54 40 35 35 28 37 35
8 8 8 8 8 9 10 9 10 10 13 13 14 17 17 43 60 34 36 34 37 47 98 100 100 100 100 93 98 99 100 89 84 86 86 80 86 92 79 60 45 43 37 40 36 47 47 45 45
8 9 8 8 9 9 10 7 10 11 10 10 10 13 22 44 78 37 59 61 59 53 74 100 100 100 95 64 61 94 74 77 100 78 85 77 70 63 47 45 40 41 51 47 52 54 67 93 100
9 10 9 9 10 11 9 8 10 10 10 10 11 12 14 26 20 22 47 89 92 96 74 92 96 99 100 100 91 78 89 98 100 88 60 92 94 80 64 54 58 66 84 95 85 87 100 100 98
11 11 11 12 11 11 8 9 9 21 53 16 14 12 13 16 19 20 24 41 91 91 100 100 87 100 100 100 100 84 100 100 79 68 74 100 95 100 95 98 100 100 100 96 90 96 100 100 96
14 13 14 13 11 10 10 8 23 95 100 97 45 20 14 13 16 20 38 96 90 98 94 100 100 88 77 99 100 100 100 97 81 86 98 96 100 100 100 100 100 85 100 100 100 100 100 89 78
18 19 15 13 12 9 16 14 27 100 100 100 100 51 28 14 20 35 100 100 100 100 100 100 100 100 100 100 100 100 100 89 97 100 100 100 100 100 100 100 97 100 100 100 100 98 88 76 61
17 16 17 13 10 9 18 65 100 100 96 100 100 81 76 33 35 48 100 100 100 100 100 100 100 100 100 100 100 100 95 100 100 100 100 98 100 100 97 100 100 100 100 100 93 85 68 62 59
21 16 14 19 12 24 100 100 100 100 100 92 100 100 48 32 32 48 100 100 100 100 100 100 100 100 100 100 100 100 100 100 100 100 96 99 95 100 100 100 99 94 87 83 76 75 71 67 58
23 22 26 25 32 98 100 100 100 99 99 100 100 76 79 42 55 74 100 100 100 100 100 100 100 100 100 100 99 99 82 99 93 70 78 100 100 100 100 99 94 83 70 80 85 66 49 38 30
32 53 66 42 100 100 100 100 100 100 87 57 82 55 34 42 56 100 100 100 100 100 100 100 100 100 100 100 100 100 100 100 100 100 100 100 100 100 98 96 94 96 86 71 61 42 38 34 25
85 95 98 79 100 100 100 100 100 99 86 77 90 100 83 58 54 90 96 100 100 100 100 100 100 100 100 100 100 100 100 100 100 100 100 100 100 94 99 95 88 67 61 52 38 35 29 25 28
97 100 100 97 100 100 100 100 100 81 78 100 83 73 71 89 73 99 100 100 100 100 100 100 100 100 100 100 99 100 100 100 100 100 100 100 96 79 74 76 65 55 46 44 40 30 41 62 74
100 100 100 100 100 100 100 96 78 95 94 99 74 86 94 85 100 97 78 76 71 96 100 100 100 93 100 100 100 100 100 100 100 97 100 99 89 84 71 64 64 53 48 43 66 83 83 86 100
100 100 100 100 100 100 98 97 77 81 97 100 100 100 100 95 97 100 100 100 100 89 89 73 86 98 100 100 98 100 100 100 100 97 74 78 72 74 81 74 60 53 54 88 97 100 100 100 100
100 100 99 100 100 74 82 71 83 83 93 88 100 100 100 100 100 100 100 100 96 88 93 100 100 100 100 100 100 87 76 80 84 100 100 90 80 58 57 44 76 98 100 100 100 100 99 82 58
100 100 100 99 88 97 93 95 89 100 100 100 100 100 100 85 85 93 100 100 100 100 74 74 68 80 95 100 98 90 81 80 78 74 60 40 30 25 34 58 71 58 40 44 84 94 58 44 48
98 100 89 80 99 95 99 100 100 100 96 100 100 96 67 100 100 100 100 100 100 100 100 100 100 100 96 88 64 70 81 52 37 25 23 28 34 46 73 61 71 41 35 33 33 34 32 32 31
89 99 81 74 90 100 100 100 100 100 100 100 100 100 100 100 100 100 100 100 88 66 79 100 93 80 70 69 65 40 24 26 31 30 30 31 30 33 28 29 29 28 27 28 28 28 29 36 48
85 83 91 100 100 95 99 100 100 100 100 100 97 100 100 100 100 100 100 100 100 87 84 87 73 57 37 27 26 28 26 25 24 25 26 26 27 29 32 38 44 45 46 47 49 50 50 48 57
84 97 88 98 99 100 100 100 100 100 90 100 100 100 100 98 96 89 76 74 77 72 61 36 24 30 31 28 25 24 25 27 26 27 34 44 48 48 48 50 54 64 71 60 48 44 44 47 53
88 79 96 94 100 94 100 82 98 100 100 100 98 77 73 76 83 80 64 51 40 25 26 34 34 29 25 25 25 27 32 36 41 44 48 54 59 66 69 74 82 85 85 75 66 59 60 60 61
100 94 100 100 100 100 99 76 84 95 91 100 74 93 72 55 44 39 29 25 34 37 34 30 29 28 27 28 35 41 44 41 44 47 49 54 64 67 57 55 59 59 56 56 54 53 52 55 60
100 100 100 100 100 100 100 100 100 90 98 89 84 54 40 24 21 30 38 36 36 33 32 31 31 32 34 38 41 42 39 38 41 43 46 49 54 63 64 60 56 56 56 50 46 48 54 60 62
100 100 100 100 97 93 100 99 83 65 65 51 35 23 27 40 38 34 36 38 35 36 34 32 34 37 36 36 40 39 37 40 46 50 53 59 68 71 73 70 66 62 55 53 55 61 64 62 60
91 99 100 90 88 85 66 50 67 45 30 23 29 43 38 33 33 38 39 42 41 38 37 35 34 37 37 36 37 37 36 39 48 57 52 59 71 75 75 73 67 55 50 54 61 65 62 63 64
86 73 53 46 48 50 42 35 26 24 27 44 43 37 35 37 43 46 50 51 47 45 45 45 40 38 44 42 36 34 39 45 56 57 54 73 78 75 75 73 66 56 60 68 65 64 71 69 61
66 68 56 40 37 35 26 24 26 43 52 44 41 42 43 47 55 52 55 60 58 52 52 53 49 46 43 44 45 44 48 57 65 50 56 73 76 74 73 68 63 64 74 69 65 71 68 57 47
49 42 36 31 26 28 28 36 44 52 45 45 47 51 54 68 63 58 56 59 70 64 50 49 61 58 67 59 51 51 60 68 62 54 76 84 76 76 72 70 70 78 74 66 66 69 71 52 42

GFSSGP_250_rhum_051.txt.gz
RH
5 6 6 6 7 8 9 10 10 9 10 11 15 18 23 24 22 22 26 34 37 34 100 100 100 92 80 100 87 61 77 77 94 100 100 90 59 56 62 76 55 58 75 74 64 51 47 39 27
7 6 6 7 7 8 8 8 8 10 12 12 13 14 25 45 38 39 33 31 28 45 69 95 100 69 78 100 98 79 84 100 91 85 68 76 64 60 71 67 65 62 59 58 47 35 31 29 33
9 8 8 8 9 9 8 8 8 14 10 10 12 12 14 28 20 27 44 37 60 51 49 58 86 97 98 96 75 99 100 96 78 76 71 77 82 89 98 98 68 56 85 70 51 55 48 63 71
10 10 9 9 11 9 9 9 8 8 9 11 11 12 12 11 11 14 22 34 82 78 82 94 88 65 55 53 57 62 100 100 94 92 97 95 96 100 100 72 50 36 44 66 78 100 92 76 73
12 10 10 10 10 10 10 8 9 17 11 20 16 17 15 12 12 22 52 31 48 88 100 100 100 93 98 100 93 84 98 100 100 92 94 100 100 96 93 56 59 88 100 100 93 51 70 71 65
13 12 12 12 12 10 9 10 32 14 12 12 18 20 15 14 19 14 70 96 93 100 100 96 99 100 100 100 100 95 100 100 100 100 100 100 89 93 60 54 91 100 100 80 72 99 77 62 100
14 13 13 12 11 9 9 10 15 10 11 17 25 17 25 20 14 14 44 78 73 100 100 100 98 100 100 99 98 100 100 100 100 100 100 100 67 80 99 100 100 93 73 100 73 97 99 99 100
16 16 14 14 13 10 9 10 12 12 27 81 70 100 62 19 15 15 24 29 32 95 100 100 100 100 86 98 88 92 100 94 100 100 92 74 100 97 100 100 100 100 100 93 100 100 100 100 90
21 23 21 13 12 11 11 11 11 23 95 100 98 91 96 68 56 29 28 35 30 45 61 100 100 93 100 100 100 100 100 100 100 100 100 100 100 100 100 100 100 100 100 100 87 100 91 85 78
26 30 18 14 12 11 12 22 36 56 100 100 100 75 98 100 90 68 32 34 41 72 100 100 100 97 100 100 100 100 100 100 100 100 100 100 100 100 100 100 97 100 98 92 97 91 82 90 81
53 29 22 18 11 13 28 97 94 100 100 100 98 98 100 100 100 99 72 62 98 100 100 100 100 100 100 100 100 100 99 100 100 100 100 100 100 100 100 100 100 100 100 99 89 99 85 66 63
59 46 32 25 28 36 48 100 100 100 90 100 100 93 100 100 100 100 100 99 100 100 99 100 100 100 100 100 100 100 100 100 100 100 100 100 100 92 100 100 100 96 99 100 100 91 72 78 70
65 49 25 30 56 79 100 100 100 100 99 73 92 87 100 100 100 100 99 98 99 100 100 100 100 100 100 100 100 100 100 100 100 100 100 100 100 90 100 100 100 100 100 100 100 88 77 60 37
55 73 88 87 64 100 100 99 100 92 72 69 56 80 100 100 93 100 100 100 93 100 100 100 100 100 100 100 100 100 100 100 100 100 100 100 100 100 100 100 100 99 99 87 75 55 44 31 32
73 99 100 98 80 100 100 100 89 59 95 99 100 100 100 94 80 67 100 100 100 100 100 100 100 100 100 100 100 100 100 100 100 100 100 100 100 100 89 95 92 95 86 58 38 28 28 34 51
100 100 100 71 97 100 100 100 100 100 100 100 81 73 84 100 100 91 97 100 100 100 100 100 100 100 100 100 100 100 100 90 87 98 88 82 95 94 90 82 69 60 43 30 30 30 40 42 44
100 100 100 100 75 100 100 100 100 100 92 78 66 77 76 99 100 100 100 94 99 100 100 100 100 90 80 64 68 66 84 100 100 96 96 84 69 64 48 38 29 26 34 49 36 33 47 42 30
100 100 100 100 94 71 99 100 94 84 82 95 99 100 100 100 100 99 100 100 98 100 100 82 96 100 100 100 100 87 66 66 77 95 82 51 41 35 26 25 26 25 24 26 29 34 41 46 51
100 100 100 100 87 87 82 87 90 86 100 100 100 100 100 100 100 100 100 100 100 100 100 100 99 84 100 100 100 100 100 100 86 65 42 33 25 25 25 24 31 38 42 46 47 44 41 43 47
93 100 100 100 99 98 96 85 100 100 100 100 100 100 100 100 100 83 99 100 98 74 88 100 100 100 100 96 96 82 73 51 39 32 26 25 23 25 33 44 47 51 56 57 54 53 53 49 48
97 91 90 85 86 100 100 100 100 100 100 100 100 100 89 87 96 88 74 94 100 100 100 100 100 100 95 84 65 49 37 27 27 25 24 29 36 41 42 42 48 52 55 58 58 58 53 54 62
78 68 84 91 90 100 100 95 89 86 81 70 100 100 100 100 99 97 100 98 100 92 86 83 82 64 56 41 30 30 31 25 24 28 35 38 34 36 36 43 49 52 59 60 60 65 67 64 62
69 83 90 82 85 100 100 100 99 99 74 62 85 90 100 100 100 99 86 68 66 62 55 52 42 31 28 33 33 28 24 26 36 36 35 38 37 36 40 44 44 48 62 72 68 70 75 71 58
82 82 88 100 100 100 84 81 79 82 84 96 100 93 90 88 67 69 64 52 49 34 29 26 30 35 33 30 26 25 26 29 34 31 30 28 26 28 33 36 39 49 62 64 61 66 63 55 47
100 87 88 91 100 88 79 87 78 99 95 86 98 79 72 66 83 47 46 35 30 37 39 37 36 34 30 28 28 27 27 28 28 28 28 30 35 38 40 36 41 52 62 60 60 57 52 50 50
100 100 99 100 92 94 100 100 100 100 97 100 100 73 64 58 44 31 48 55 44 40 38 36 36 36 36 32 31 34 36 32 32 31 33 39 42 40 34 46 58 64 62 56 59 55 54 64 68
100 100 100 99 96 100 89 60 74 86 83 74 65 52 38 28 28 48 42 44 43 42 42 41 42 42 42 45 45 44 42 40 40 47 61 63 53 45 47 54 61 63 60 59 61 58 63 77 73
80 67 93 100 96 100 90 70 82 64 38 41 41 36 26 44 44 40 41 40 46 42 42 44 46 52 49 53 56 50 56 59 67 91 84 59 49 45 53 63 63 58 60 66 62 74 83 76 68
80 84 69 78 75 65 45 60 56 36 35 29 26 32 47 45 40 40 39 46 49 46 49 50 50 51 51 53 50 53 59 69 87 72 53 52 46 56 64 67 64 65 67 69 78 79 72 74 72
44 57 53 37 55 77 46 41 28 28 26 27 40 58 47 42 44 40 35 39 44 45 51 54 58 62 61 61 67 72 66 69 57 53 53 47 59 64 68 62 63 70 72 80 74 68 70 77 65